Wind_Speed
31 31 29 28 27 28 29 30 31 32 32 33 35 35 35 35 34 35 37 37 35 34 33 32 32 29 27 28 29 30 30 28 26 26 26 26 27 28 30 30 30 29 30 31 32 31 29 29 29 28 28 28 28 28 30 31 31 32 33 32 32 31 30 29 28 28 27 27 27 26 26 25 25 26 27 28 29 30 31 32 33 35 37 38 39 39
33 32 31 29 30 32 32 32 32 33 33 34 36 36 36 37 36 37 39 39 38 37 35 33 33 30 27 28 29 30 30 28 27 28 27 27 28 29 31 32 31 31 30 32 33 32 30 31 31 30 29 29 29 29 31 32 33 33 34 35 34 33 32 31 29 29 28 27 27 27 26 26 27 28 29 30 31 32 33 34 36 38 40 41 41 41
34 34 32 32 33 34 34 33 34 35 35 35 37 38 38 38 39 39 39 40 40 40 37 36 35 32 28 29 29 30 31 29 29 28 28 29 29 29 31 33 33 32 32 32 33 33 32 32 32 32 32 31 31 31 31 33 34 35 36 37 37 35 34 32 31 30 29 28 28 28 28 28 29 30 31 32 33 34 35 37 39 41 42 42 43 43
36 35 34 35 36 35 34 35 36 37 38 38 38 39 39 39 40 40 39 41 41 41 39 38 37 34 29 29 29 30 31 30 30 30 30 31 31 31 32 33 33 33 33 33 33 33 32 32 33 33 34 33 33 32 33 34 35 36 37 38 38 37 35 34 32 31 29 29 29 29 30 31 31 32 33 34 34 36 37 39 41 41 42 43 44 45
38 37 37 38 37 36 36 36 37 38 40 41 40 41 41 40 40 40 39 41 41 41 40 39 39 35 30 30 29 28 31 31 30 31 31 32 32 32 33 33 33 34 34 34 33 33 33 33 34 34 35 35 34 34 34 35 36 37 38 39 39 38 36 35 33 32 31 30 30 31 32 32 32 33 34 35 37 38 39 40 41 41 43 44 45 46
39 39 40 40 38 37 37 37 38 40 41 42 42 41 41 40 40 39 40 41 42 42 40 39 41 37 30 30 28 27 30 31 31 31 31 32 32 32 34 34 35 34 34 34 34 34 35 35 35 36 36 35 35 35 36 36 37 38 39 39 39 38 37 35 33 33 32 32 32 32 32 32 33 35 37 38 39 40 40 41 41 43 44 46 47 48
42 41 41 41 40 38 38 38 39 41 42 43 42 40 40 40 40 40 41 42 43 44 42 39 41 40 32 27 25 26 30 31 31 30 29 30 31 32 34 35 35 35 35 36 35 35 36 36 36 36 36 36 36 36 36 37 38 39 39 39 38 38 36 35 34 33 33 33 33 33 33 34 36 38 39 39 39 40 41 42 44 45 47 48 50 51
44 43 42 42 42 41 40 39 40 41 42 43 41 39 40 41 41 42 42 43 44 44 44 40 40 42 36 25 22 27 30 29 28 28 28 29 31 32 34 35 35 36 37 37 37 37 37 37 37 37 36 36 36 36 37 37 38 39 39 39 38 37 36 35 34 34 33 33 33 33 34 36 37 38 39 39 40 41 43 45 47 48 49 50 51 52
47 46 46 44 42 41 39 38 38 39 40 41 40 40 41 41 42 42 42 43 43 43 44 39 36 41 41 29 24 27 27 26 25 26 28 29 31 33 34 35 35 35 37 37 37 37 38 38 38 38 37 37 37 36 37 37 38 39 38 38 37 36 36 35 35 34 34 34 34 35 36 37 37 38 38 40 41 43 45 47 48 49 50 51 52 52
48 48 47 44 42 41 39 38 38 39 40 41 40 40 41 41 42 42 43 42 43 45 42 36 33 39 43 36 29 26 24 25 26 26 27 29 32 34 35 35 36 36 36 37 38 38 38 38 38 38 38 38 37 36 36 37 38 38 38 38 38 37 36 36 35 35 35 34 35 36 37 37 38 39 40 41 43 45 46 47 48 50 51 51 52 52
49 48 47 46 44 43 42 40 39 40 41 42 42 41 41 42 42 43 43 42 44 46 40 34 33 38 44 40 32 27 25 26 27 27 29 30 33 35 35 36 36 36 37 37 38 38 38 38 37 38 38 38 36 35 35 36 37 39 39 39 38 37 37 37 36 36 35 36 37 38 38 39 39 40 41 42 44 45 46 48 49 50 51 52 52 53
49 49 49 49 48 47 45 43 41 40 41 42 42 42 41 43 43 43 44 43 46 46 39 36 37 40 45 42 35 32 29 27 27 27 29 31 32 35 36 37 36 36 36 37 37 38 38 38 37 37 38 37 36 35 35 36 38 39 39 39 38 38 38 38 37 37 37 38 39 39 39 40 41 42 43 44 45 47 48 49 50 51 52 53 54 55
51 51 52 52 51 48 45 43 41 40 40 39 40 41 41 43 45 45 45 44 45 44 40 39 41 43 45 40 35 34 32 31 28 26 27 30 31 33 35 37 37 37 36 36 37 37 37 37 37 37 36 36 36 36 36 37 38 38 39 39 39 38 39 38 38 38 39 39 39 39 39 41 42 44 45 46 48 49 51 52 53 53 54 55 56 57
54 55 54 52 50 47 44 42 41 39 39 40 40 40 41 44 46 46 45 44 44 44 42 43 45 46 44 38 34 33 32 32 31 28 27 29 31 33 34 36 37 38 38 37 36 36 36 36 36 36 35 35 36 36 37 37 37 38 38 39 39 39 40 39 39 39 38 38 38 39 41 42 44 46 47 48 50 51 53 54 55 56 57 58 58 59
56 56 53 49 47 45 44 42 41 40 41 42 40 40 43 43 44 45 45 45 46 45 45 46 47 47 43 38 35 35 33 32 31 30 29 29 30 32 34 35 36 37 38 38 37 37 36 36 36 35 35 35 36 36 37 37 38 39 39 40 41 41 41 40 39 38 38 38 39 41 43 45 47 48 50 51 52 53 54 56 58 59 60 60 61 61
54 53 50 47 46 45 44 43 42 41 42 43 42 44 44 41 40 44 46 47 47 48 48 48 48 47 44 41 38 37 34 31 31 32 31 31 31 31 33 34 35 36 37 37 37 37 36 36 36 36 36 36 36 36 37 38 39 40 41 41 42 42 41 40 40 39 39 40 42 45 47 49 51 52 53 53 54 55 57 59 61 62 62 62 62 62
51 50 49 48 47 46 45 44 43 42 44 45 46 45 43 40 41 44 47 47 46 49 50 50 48 46 45 43 39 37 35 33 33 33 32 32 32 32 33 33 34 35 36 36 36 36 36 36 35 35 36 36 36 37 38 39 40 41 42 43 43 43 42 42 42 42 43 45 47 49 50 52 54 55 55 55 56 57 60 62 64 64 64 63 63 63
50 51 51 50 49 47 46 45 45 45 46 47 47 44 42 43 44 44 46 47 47 50 52 51 50 47 46 44 39 38 38 38 37 35 33 32 33 34 34 34 34 34 34 35 35 34 34 34 34 34 35 36 37 38 39 40 41 42 43 44 44 44 44 45 45 46 48 49 51 52 54 56 57 56 56 56 58 60 63 65 66 65 65 65 65 65
51 53 54 54 52 50 48 47 48 48 48 47 46 45 44 45 45 44 45 47 48 50 52 51 50 47 45 43 41 40 40 40 39 37 34 33 33 34 35 35 34 33 33 34 34 33 33 33 34 34 35 36 37 38 39 41 42 43 44 45 46 46 47 48 49 50 52 53 54 56 58 58 58 58 58 58 61 64 66 66 66 65 66 66 67 68
50 52 54 55 54 53 52 51 50 49 47 46 46 46 47 47 47 45 45 47 47 48 50 50 50 48 44 43 43 42 41 40 39 37 34 33 33 33 34 35 33 32 32 33 33 33 33 33 34 34 35 36 37 39 41 42 43 45 46 47 47 48 49 51 53 54 55 57 59 60 60 60 60 59 60 61 63 66 67 66 66 67 67 68 69 70
48 49 51 52 52 53 53 52 49 47 46 47 48 49 49 48 47 47 47 46 45 45 46 49 52 51 46 45 44 42 41 39 37 35 34 33 33 32 32 33 32 31 31 31 32 32 33 34 34 35 36 37 39 40 42 43 45 47 48 48 49 50 52 53 56 57 59 60 61 61 60 61 61 61 62 63 65 66 67 67 68 68 69 70 70 71
47 47 47 49 50 50 50 49 49 50 50 51 51 51 51 49 48 48 47 45 42 42 43 48 54 52 46 48 46 41 40 40 38 36 34 34 34 33 33 33 32 32 31 32 32 33 34 35 36 37 38 39 40 42 43 45 46 47 48 49 50 51 52 54 56 58 59 60 61 60 61 61 61 62 63 64 66 67 68 69 69 70 70 71 72 72
48 48 47 48 49 48 49 50 52 52 53 53 53 53 53 50 48 46 44 43 42 43 44 49 55 52 46 48 47 41 40 41 42 39 36 35 35 34 34 34 35 34 33 33 33 34 36 37 38 40 40 42 43 44 45 45 46 46 46 47 49 50 52 54 55 57 58 58 59 60 60 61 62 63 65 66 68 69 70 70 70 70 71 72 73 74
50 52 50 49 49 49 49 50 52 53 55 55 55 53 50 48 45 43 43 43 44 46 47 51 56 53 47 47 47 43 43 43 44 43 39 37 35 34 35 35 36 37 36 35 35 35 37 38 40 41 42 43 44 44 45 45 44 45 45 46 48 49 52 54 55 56 57 58 59 60 61 62 64 65 66 68 69 70 70 70 70 71 72 74 75 76
52 54 52 51 51 50 51 52 53 55 56 55 51 48 47 45 44 45 45 46 49 50 50 53 57 53 47 47 47 46 46 46 46 46 43 40 37 35 34 35 36 37 37 36 37 37 39 40 40 41 42 42 42 43 44 44 45 46 47 48 49 51 53 54 56 57 57 58 59 61 62 63 64 65 66 68 69 70 70 71 72 73 74 76 76 76
55 56 54 53 52 52 52 52 52 52 53 52 50 48 47 46 46 48 48 50 54 55 53 55 57 53 49 49 48 47 48 48 47 47 46 43 39 34 33 34 35 35 37 38 38 39 39 40 40 41 41 42 44 45 47 47 48 49 50 51 53 54 55 55 56 57 57 58 59 61 62 63 63 65 67 68 70 71 71 72 73 75 76 76 76 77
57 58 55 53 53 52 52 51 51 52 52 53 51 49 48 47 46 49 51 53 55 56 56 56 55 53 50 48 46 44 46 49 49 49 47 45 42 38 35 34 35 35 37 38 39 40 41 42 43 44 45 47 48 49 50 50 51 51 52 54 55 55 55 55 56 56 57 58 60 61 62 63 65 66 68 69 71 72 73 73 75 76 76 76 76 78
57 57 55 53 53 52 50 50 51 53 54 55 53 52 50 49 50 52 55 55 54 56 59 56 54 53 50 45 44 43 45 50 50 48 47 46 46 44 40 38 38 39 40 41 42 44 46 48 49 50 51 52 52 52 52 52 52 53 54 55 55 55 55 55 56 57 59 60 62 63 63 65 66 68 69 71 72 73 73 74 75 75 76 76 77 79
54 54 52 51 51 50 48 48 50 52 54 56 57 57 56 55 55 56 56 55 55 59 60 56 53 53 49 46 46 44 45 48 48 46 47 48 47 46 44 44 44 43 44 45 46 47 49 51 52 53 53 53 53 53 52 52 53 53 54 55 55 56 56 57 58 59 60 62 63 63 65 66 68 69 70 71 72 73 73 74 74 75 76 77 79 80
51 50 49 49 50 49 47 47 49 51 52 55 58 59 58 57 57 57 58 58 59 60 59 53 52 53 51 49 47 45 46 47 46 46 48 48 47 47 48 48 47 46 45 46 47 48 49 50 51 51 51 51 52 52 52 53 54 55 55 55 56 57 58 58 59 60 62 62 63 64 66 67 69 70 71 72 72 72 73 73 74 76 77 78 80 81
49 50 50 51 52 51 48 49 51 50 50 51 54 56 56 56 57 59 60 58 57 57 54 51 53 54 51 48 46 47 49 50 49 49 49 49 50 50 50 50 48 47 47 47 48 50 51 51 51 51 51 52 52 53 53 55 56 56 56 56 57 58 58 59 60 61 62 63 64 66 67 68 70 71 71 72 72 72 72 74 75 76 78 80 81 81
46 49 51 52 54 54 51 50 52 50 49 50 51 51 53 55 57 58 56 54 54 54 53 53 56 54 49 48 50 51 53 53 52 52 52 52 52 52 52 52 50 49 49 50 52 54 54 53 52 52 53 54 55 55 56 57 58 57 57 58 58 59 59 61 62 62 63 64 66 67 68 69 70 71 71 71 71 72 73 74 76 78 79 80 81 81
44 47 49 50 54 56 53 53 53 51 52 53 51 49 49 51 53 54 54 54 54 54 55 56 56 52 49 53 55 54 55 55 54 54 54 55 55 56 56 55 54 53 52 53 55 56 55 54 54 55 57 57 58 58 58 59 59 59 59 59 60 61 62 63 63 64 65 65 67 68 69 70 70 71 71 71 71 72 74 76 77 79 80 80 81 82
44 45 46 48 51 53 52 54 55 55 57 57 53 49 49 51 53 56 57 56 55 55 57 57 55 53 53 57 58 58 59 58 56 55 55 56 57 57 57 56 56 55 55 56 57 56 55 55 56 58 59 59 59 60 61 61 61 61 61 61 62 63 63 64 64 65 66 67 68 69 69 70 70 70 71 71 72 74 75 77 78 79 79 80 81 81
45 45 46 47 49 50 50 52 57 59 60 58 54 53 54 55 57 59 59 57 56 57 58 59 58 57 57 60 61 61 61 59 57 56 55 55 56 55 55 56 56 56 57 58 58 58 57 58 59 60 61 61 62 62 62 62 62 62 63 63 63 64 64 65 66 67 67 68 69 69 69 69 70 70 71 71 73 75 76 77 78 78 79 80 80 80
46 47 48 48 49 49 50 53 58 59 57 55 55 57 58 60 60 60 61 59 56 57 59 60 60 60 60 62 62 62 61 60 59 59 57 57 57 55 55 56 57 58 59 60 61 61 61 61 62 63 63 63 63 63 62 63 64 64 64 63 63 65 66 67 68 68 68 69 69 69 69 69 69 70 71 73 75 76 76 76 77 79 79 79 79 78
49 50 51 51 52 52 54 56 58 58 56 54 53 56 58 58 58 58 61 59 56 57 60 61 61 61 61 61 61 60 60 61 61 60 58 58 58 57 57 58 59 61 61 62 63 64 64 64 64 63 63 62 62 63 63 64 64 64 63 64 65 66 67 68 68 68 68 69 68 68 68 69 70 71 73 74 75 75 76 76 77 78 78 78 77 76
51 52 53 55 57 57 58 59 58 60 60 55 51 53 55 55 56 58 62 59 54 56 62 62 61 60 59 58 59 58 60 62 62 60 58 59 60 60 61 61 62 63 63 64 64 65 65 64 63 62 61 62 63 63 63 63 63 63 64 65 67 67 68 68 67 67 68 68 68 68 69 70 71 73 74 75 75 75 76 77 77 77 77 76 74 73
53 54 54 56 57 57 58 60 60 62 61 56 54 56 57 56 57 60 63 59 54 57 62 61 58 57 56 56 58 58 61 63 62 59 59 61 61 62 62 63 63 63 63 63 63 62 61 61 60 61 61 61 61 61 61 62 63 65 66 67 67 68 67 66 66 67 67 67 68 69 70 72 73 74 74 75 75 75 76 76 76 75 74 73 72 71
53 54 54 56 57 57 58 60 61 62 60 56 57 59 59 59 59 61 64 61 56 58 61 60 58 57 56 57 58 59 60 61 60 59 60 61 61 61 61 60 60 60 60 59 59 59 59 59 59 59 59 59 60 60 62 64 65 66 66 66 66 66 65 65 66 67 67 68 69 71 72 73 74 74 74 75 75 75 75 75 74 73 72 71 71 71
54 55 56 57 57 56 57 59 61 61 59 57 58 60 61 62 63 64 64 61 57 58 60 60 60 60 59 59 59 59 59 59 59 59 59 59 60 60 59 59 59 59 59 59 59 59 59 59 58 58 58 60 61 63 64 64 65 65 65 65 65 64 65 66 67 67 68 69 71 72 73 73 74 74 74 75 75 74 74 73 72 71 71 71 71 72
56 56 57 57 56 56 56 57 60 60 57 55 57 59 60 61 62 62 61 59 59 59 60 61 62 61 61 61 60 59 58 58 57 58 58 59 59 59 60 60 61 61 60 60 60 59 58 57 57 58 60 62 63 64 64 64 64 64 63 64 64 64 65 66 67 68 69 70 71 72 73 73 73 74 74 74 73 72 72 71 71 71 71 72 72 73
57 57 57 55 53 55 56 58 60 59 55 53 55 57 58 60 61 60 60 60 60 60 60 61 62 61 62 62 61 61 61 60 59 59 59 59 59 59 60 60 60 60 59 59 57 56 56 57 58 60 62 63 64 64 63 63 62 62 62 63 64 65 66 67 68 69 70 71 71 72 72 72 72 73 72 72 72 72 71 71 71 71 72 73 73 74
59 59 58 55 53 55 57 58 58 57 54 54 55 56 58 59 60 59 59 60 60 59 60 60 61 61 62 62 62 63 62 62 61 60 59 58 58 58 58 58 58 58 57 56 55 55 56 58 60 61 62 62 62 62 61 61 62 62 63 65 66 67 67 68 69 69 70 70 70 71 71 71 72 72 72 72 72 72 72 72 72 73 73 74 74 75
61 61 61 60 58 59 60 59 58 57 56 56 56 57 58 58 58 58 58 58 59 59 59 60 61 62 62 62 62 62 61 60 59 58 58 58 57 57 57 57 56 56 55 54 54 54 56 57 59 60 60 60 60 61 62 62 63 64 65 66 67 68 68 68 69 69 69 69 70 70 71 71 71 71 72 72 72 72 72 73 73 73 74 75 74 73
64 64 64 64 64 63 62 61 60 59 59 58 58 58 59 59 58 58 58 58 58 58 58 59 60 60 61 60 60 59 59 58 58 58 58 58 58 58 57 57 56 56 55 55 55 56 57 58 59 60 60 61 62 62 63 64 65 66 67 67 68 68 68 68 68 68 69 69 70 70 71 71 71 72 72 72 73 73 73 73 74 74 74 74 73 71
67 66 66 66 65 64 64 63 62 61 61 61 60 60 60 60 60 59 58 58 58 57 57 58 58 58 58 58 57 57 58 58 59 59 60 59 59 59 58 58 58 58 58 58 59 59 60 60 61 62 62 63 64 64 65 66 66 67 68 68 68 68 68 68 68 68 69 70 70 71 71 71 72 72 72 73 73 73 73 74 74 74 73 72 70 68
68 67 67 67 66 65 65 64 63 63 63 62 62 62 62 61 61 59 59 59 59 58 58 58 57 57 57 56 57 57 58 59 59 60 60 60 60 59 59 60 60 59 59 60 60 60 61 61 62 63 63 64 65 66 67 67 68 68 68 67 67 67 67 68 68 69 69 70 70 71 71 72 72 73 73 73 73 73 73 73 73 72 71 69 67 66
65 65 66 66 66 65 64 63 62 63 62 62 63 62 62 61 60 59 59 59 58 58 57 57 56 56 56 57 57 58 58 59 59 59 59 59 59 59 60 60 59 59 59 60 60 60 61 61 62 64 65 66 66 67 67 68 68 67 67 66 66 67 67 68 69 69 70 70 71 71 72 72 72 72 72 72 73 73 73 72 71 70 68 66 65 65
64 63 63 64 64 64 63 62 62 62 61 60 60 60 59 58 58 57 57 56 56 56 56 56 56 57 57 58 58 58 58 58 57 57 57 57 58 58 58 58 58 59 59 60 60 61 63 64 65 66 66 66 67 67 67 67 67 67 67 67 67 67 68 68 69 70 70 71 71 72 72 72 72 72 72 72 72 72 71 70 69 67 66 65 65 66
62 61 61 61 61 61 61 61 62 61 60 59 58 57 57 57 56 56 55 55 55 55 55 56 57 57 58 58 57 57 56 56 56 56 57 57 57 58 58 58 59 60 60 62 63 64 64 65 65 65 65 66 66 66 66 66 66 67 67 67 67 68 69 69 70 71 71 71 71 71 71 71 72 72 72 72 71 70 69 68 66 65 65 65 66 67
Wind_Direction
268 271 274 278 280 277 276 275 275 276 277 278 280 282 284 286 287 288 286 285 284 283 281 280 278 275 274 274 274 273 274 276 279 278 274 271 268 268 268 268 268 269 270 270 269 268 268 268 269 270 272 272 271 269 266 264 261 259 259 258 258 258 259 261 261 260 259 259 259 260 262 263 265 269 273 276 279 281 284 287 291 294 297 298 299 300
269 271 275 277 276 276 277 276 276 277 277 278 280 282 285 286 286 285 284 284 284 283 282 280 278 276 273 271 271 272 273 274 276 277 276 273 269 269 270 271 271 271 271 272 272 271 270 268 267 268 270 271 270 268 266 264 263 261 260 261 260 261 262 264 264 262 261 261 262 263 265 267 269 272 275 278 281 284 287 290 293 295 296 298 298 300
269 271 274 275 275 277 278 278 278 278 278 279 281 283 284 284 283 282 283 283 283 282 281 280 278 276 273 271 271 272 272 273 275 277 278 275 270 267 267 270 272 273 273 273 273 273 271 269 267 267 267 268 269 268 266 264 262 261 261 261 262 262 264 266 266 264 264 264 265 266 268 270 272 275 278 280 284 287 289 291 293 295 296 297 298 301
268 271 272 273 276 277 278 279 279 280 280 281 282 283 282 282 281 281 282 282 282 282 281 279 277 275 273 272 271 271 272 273 276 278 279 277 273 270 267 268 271 273 274 273 273 273 272 269 268 266 266 267 268 268 265 263 261 260 261 261 262 263 264 266 266 265 265 266 267 268 270 272 275 277 280 282 285 288 290 292 293 294 295 297 299 301
268 270 271 273 275 277 278 278 279 281 282 283 283 282 281 280 280 281 281 280 281 281 281 280 277 274 271 270 270 271 273 274 276 278 278 276 274 271 270 270 271 272 274 274 274 273 272 270 268 267 267 267 267 266 264 262 260 259 259 260 261 263 264 266 266 265 266 268 269 270 272 275 278 280 282 284 286 289 290 292 292 293 295 298 300 302
267 269 271 273 275 276 277 277 279 281 282 282 282 281 281 280 280 281 281 280 280 280 280 280 278 276 271 269 271 271 271 272 274 277 278 277 275 272 271 270 271 272 274 275 275 273 272 270 270 269 269 269 268 266 264 262 260 259 259 260 261 262 264 266 265 265 267 269 271 273 275 277 280 282 284 285 287 289 291 292 293 295 297 299 300 301
266 269 271 273 275 275 275 277 279 281 281 280 280 280 279 279 279 279 279 279 280 280 280 279 279 279 273 268 271 270 268 269 273 277 276 275 274 273 272 273 274 275 276 276 275 274 273 271 271 270 270 270 269 267 265 263 261 259 259 259 260 261 263 265 265 266 268 270 271 273 276 279 281 283 285 287 289 291 293 293 295 296 298 299 300 300
267 269 271 272 273 274 276 279 280 280 279 279 279 278 277 277 278 278 278 278 278 279 279 278 281 282 277 270 268 265 265 269 275 278 275 271 271 270 271 272 273 274 274 274 274 274 273 272 272 271 271 271 270 269 267 264 262 260 259 259 260 261 263 264 265 266 268 269 271 274 278 281 283 285 287 289 291 293 294 295 296 297 298 299 299 300
269 270 270 271 273 275 278 280 279 278 277 277 277 276 276 277 277 277 277 277 277 277 276 278 283 283 279 276 269 262 264 271 274 274 272 271 270 270 270 271 272 272 273 273 273 272 272 271 271 271 271 271 271 270 267 265 263 261 260 260 260 261 262 263 264 266 268 269 273 278 281 284 286 288 290 292 293 294 296 297 297 298 298 299 299 300
269 270 271 272 273 275 278 278 277 276 275 275 275 275 275 276 276 276 276 277 277 275 275 280 283 281 279 276 272 269 270 272 272 271 270 270 270 270 271 272 272 272 272 272 272 271 271 270 270 270 270 270 271 269 267 264 262 261 260 260 261 261 262 263 264 266 269 272 277 281 283 285 288 290 291 292 294 295 297 297 298 298 298 299 300 301
269 271 272 273 274 276 276 275 273 273 273 274 275 275 275 275 275 275 275 275 274 273 277 282 281 279 277 275 275 277 275 272 271 272 271 271 272 273 273 273 272 272 272 272 271 271 270 269 269 269 269 270 270 268 265 262 261 260 259 260 261 262 262 263 265 268 272 276 279 282 284 286 288 290 291 293 295 296 297 298 298 299 300 301 301 302
269 270 272 274 274 275 274 273 272 272 273 275 275 275 275 274 273 272 272 272 272 276 280 282 279 276 274 275 281 283 282 278 273 271 272 273 275 276 276 275 274 272 272 272 272 271 270 269 268 268 269 268 267 264 262 260 258 258 259 260 261 262 263 264 267 271 275 278 280 282 284 286 288 290 292 294 296 297 298 299 299 300 301 302 302 302
268 270 272 273 273 274 275 275 275 274 274 274 273 272 271 271 270 270 270 272 274 278 282 280 278 274 272 276 283 286 286 284 279 276 275 274 275 275 276 276 276 274 272 272 271 271 270 269 268 267 267 266 263 261 259 258 258 258 259 260 260 261 263 265 269 272 275 277 279 282 284 287 289 291 293 294 296 298 299 300 300 301 302 302 302 302
270 270 270 272 273 274 273 273 272 271 270 268 266 267 267 268 269 271 273 275 276 278 279 277 276 274 275 279 283 284 282 282 282 282 279 276 276 275 276 276 275 274 273 271 270 269 269 268 267 266 265 262 260 259 258 258 258 258 258 259 260 262 264 267 269 272 275 277 279 282 285 288 291 293 294 295 297 298 299 300 300 301 301 301 301 301
269 270 270 272 272 272 271 269 268 267 265 265 264 264 264 266 270 273 275 276 276 277 277 276 275 275 278 281 281 278 277 280 283 284 283 281 280 279 279 279 278 276 274 272 270 268 267 267 265 264 262 261 260 259 258 258 258 258 259 259 261 263 265 267 269 272 274 277 280 283 286 290 292 294 294 295 297 298 299 300 301 301 300 300 300 301
269 269 270 270 269 269 268 266 264 263 263 263 262 262 264 267 270 273 274 275 277 278 277 276 275 277 280 280 277 277 280 283 284 284 286 286 285 284 282 282 281 279 276 274 272 269 267 265 263 262 261 260 260 259 258 258 258 259 259 261 262 264 266 267 269 272 275 278 281 285 288 291 293 294 294 295 297 298 300 300 300 300 299 299 300 301
267 268 267 267 266 265 265 265 264 262 261 261 261 263 266 268 268 269 272 274 276 277 277 277 277 278 280 278 278 282 286 286 285 284 285 288 289 288 285 283 282 280 278 275 272 270 267 265 263 261 260 259 259 258 258 258 259 260 261 263 264 265 267 268 270 273 276 280 283 286 289 291 293 294 295 296 297 299 300 300 299 299 299 299 300 301
264 265 264 264 264 263 263 263 262 260 259 260 262 264 264 265 266 268 271 274 275 276 276 276 278 279 280 280 283 287 287 285 284 283 285 289 290 288 286 284 282 280 278 274 271 269 266 264 262 260 258 258 258 258 258 259 261 262 263 264 265 267 268 270 272 275 278 281 283 286 288 290 291 293 294 296 298 299 300 299 299 299 299 300 300 300
262 262 262 262 262 261 260 260 259 259 259 260 262 263 263 265 266 268 270 273 274 275 276 278 280 280 279 281 284 284 282 282 283 285 288 290 287 285 284 282 280 278 276 272 269 266 263 261 259 258 257 257 258 259 259 261 262 263 264 265 267 268 270 272 274 276 278 281 283 285 287 288 290 292 294 296 298 299 299 299 298 299 299 300 300 300
261 260 260 259 259 259 259 258 258 259 260 261 262 262 262 264 265 266 268 269 271 275 278 282 282 279 278 280 280 280 281 283 285 287 290 288 285 282 280 278 276 274 271 268 266 264 262 261 260 259 258 258 259 260 260 261 263 264 265 266 268 270 271 273 275 277 279 281 283 285 286 288 290 292 295 297 297 298 298 299 299 298 299 299 299 299
260 259 258 259 259 258 259 260 260 260 260 259 258 258 259 261 263 264 265 266 271 277 282 285 281 277 277 279 279 283 288 289 289 289 289 289 285 281 277 275 273 269 264 261 261 260 260 260 260 260 260 260 260 261 261 262 263 264 265 268 270 271 272 274 276 277 279 280 282 284 286 287 290 293 295 296 296 297 299 299 298 298 298 298 299 299
262 260 258 258 257 257 260 261 259 257 256 255 256 258 258 259 260 261 264 269 274 278 281 282 278 275 277 280 282 289 294 294 292 291 291 290 285 281 277 273 269 264 260 257 257 257 257 257 258 259 260 260 261 262 262 263 264 266 268 271 272 274 275 276 277 278 279 280 282 284 286 289 291 294 295 295 296 297 298 298 298 298 297 298 299 299
262 261 256 254 254 256 258 259 259 258 257 257 257 256 256 258 260 263 268 273 275 275 274 275 275 275 276 279 284 291 294 295 294 292 292 289 285 281 277 272 266 261 258 257 257 258 258 258 259 260 260 261 261 262 263 265 267 270 272 273 275 276 276 277 277 278 279 280 282 284 287 290 292 293 294 294 295 296 297 297 297 297 297 298 299 300
260 261 258 256 256 256 258 259 259 259 258 257 257 257 259 262 263 264 267 269 269 269 271 272 273 274 276 280 286 290 292 293 294 292 289 287 284 281 276 272 267 262 259 259 259 259 260 260 260 260 260 261 262 264 266 267 269 271 272 274 275 275 275 276 276 277 279 280 283 286 288 290 291 292 293 293 295 296 296 297 297 298 298 299 299 300
261 263 261 258 256 255 255 256 256 257 257 258 260 261 262 262 261 262 264 267 267 266 268 269 270 274 279 282 285 289 292 294 294 291 287 284 282 280 276 273 270 266 264 263 262 261 260 260 260 260 261 263 264 266 267 267 268 270 271 273 274 274 274 274 275 277 279 282 284 287 289 290 291 292 293 294 295 296 297 298 298 298 298 299 299 301
262 263 261 258 257 254 253 255 259 261 261 261 260 259 259 258 259 261 262 264 264 264 265 267 270 275 279 281 284 290 295 296 294 289 286 284 282 278 276 275 273 272 269 267 266 265 263 262 262 262 263 265 266 267 268 268 269 270 271 271 272 272 273 275 276 279 282 285 287 289 291 292 293 294 295 296 297 297 298 298 298 297 297 298 299 302
263 264 261 259 260 257 255 258 262 263 261 259 258 256 255 255 256 258 258 260 263 267 267 268 272 275 274 277 285 291 296 296 293 289 287 286 283 278 273 273 274 273 271 270 269 267 265 265 265 265 266 267 268 270 271 271 271 271 272 272 273 275 277 279 281 284 288 290 291 292 293 294 295 296 296 297 297 297 297 297 296 296 297 298 300 303
263 264 261 261 262 259 257 259 262 262 260 259 257 254 253 253 253 256 258 261 266 269 269 269 272 273 272 277 284 288 292 296 295 291 287 284 281 277 273 273 273 272 270 269 269 268 267 267 268 269 270 271 272 273 274 274 275 275 276 277 279 282 284 286 288 290 292 292 293 293 294 295 295 295 296 296 296 296 296 295 295 296 297 299 301 304
263 264 262 261 261 258 256 257 260 261 261 260 257 255 254 253 254 256 260 263 266 268 268 269 272 274 274 277 280 284 292 295 293 288 283 280 278 276 274 273 273 272 271 270 270 269 269 269 270 272 273 275 276 278 279 280 281 282 283 284 286 287 288 290 291 291 292 292 293 294 294 294 294 295 295 295 295 295 295 295 295 296 298 300 302 304
263 263 261 260 259 256 255 257 259 259 259 258 256 255 254 255 257 258 259 261 264 266 267 270 274 273 271 274 281 288 291 289 284 280 277 277 276 274 273 273 273 272 271 271 271 272 273 273 275 276 279 281 282 283 284 284 284 285 286 287 288 289 289 290 291 291 291 293 293 293 293 293 293 293 294 294 294 294 294 295 295 297 299 301 303 303
261 261 260 261 262 257 255 258 259 258 257 256 254 254 254 256 256 256 257 260 265 268 269 272 272 268 268 277 284 285 282 282 282 281 279 277 276 273 273 275 275 273 271 270 272 274 276 278 280 282 284 285 285 285 285 285 286 286 287 287 288 289 290 290 290 291 292 293 293 293 292 292 292 292 293 293 293 294 294 294 296 298 301 302 302 302
259 261 261 263 263 259 256 258 258 257 258 256 253 254 256 255 255 257 261 264 267 268 269 270 268 266 271 279 280 278 280 283 285 284 279 276 275 274 274 275 275 273 272 273 274 277 279 282 284 286 286 286 286 285 285 285 286 286 287 288 289 289 290 290 291 292 292 292 291 291 290 290 291 292 292 292 293 293 294 295 298 300 301 302 302 301
259 260 261 261 262 261 258 258 257 257 257 256 255 258 259 257 259 262 263 264 266 268 269 269 269 270 275 278 278 279 282 282 281 279 276 274 273 272 272 274 275 275 274 275 277 280 283 285 285 286 286 285 285 285 285 285 286 286 287 288 289 289 290 290 291 292 291 289 289 289 289 290 290 291 291 291 292 293 295 297 299 300 301 301 301 301
260 260 260 261 262 261 259 258 259 257 256 257 258 259 257 258 260 263 264 264 267 270 271 272 274 275 277 278 279 280 280 279 277 276 274 273 271 271 272 274 276 276 276 277 278 280 283 284 284 284 284 284 284 284 284 285 286 286 287 288 289 289 290 290 290 289 287 287 287 288 289 289 289 290 290 291 292 294 297 298 299 300 300 300 300 300
259 259 260 261 263 264 262 261 261 260 259 259 260 259 258 259 261 263 265 267 269 272 274 276 277 277 277 278 279 278 278 278 276 273 272 270 269 269 271 273 274 276 276 277 279 280 281 282 282 282 283 282 282 283 283 284 284 285 286 287 288 288 288 287 286 285 285 287 288 288 288 288 288 289 290 292 294 296 298 299 299 299 299 299 299 299
256 256 258 259 261 263 264 263 265 266 266 264 261 260 260 261 263 265 267 268 270 273 274 274 275 276 277 277 278 278 278 276 274 273 273 270 268 268 270 272 273 274 275 276 278 279 279 280 280 280 281 281 281 281 281 282 283 284 285 286 286 284 283 283 283 284 286 287 287 287 286 287 288 290 292 294 297 298 298 298 298 298 298 298 298 297
252 253 256 258 259 261 263 265 267 269 269 267 265 265 265 265 266 267 267 267 268 270 271 271 273 274 275 275 275 275 274 273 273 275 274 271 269 270 270 271 272 273 274 275 276 277 278 278 279 280 280 280 280 280 280 281 283 283 283 282 281 280 280 282 284 286 286 286 285 285 285 287 289 292 295 297 297 297 297 297 297 297 297 297 296 296
251 253 257 260 261 262 263 264 265 265 266 268 269 268 267 267 266 266 266 267 268 270 270 270 271 271 271 271 271 271 270 270 272 274 273 271 271 271 270 270 271 272 273 274 274 276 277 278 279 279 279 279 279 280 280 281 281 280 279 278 278 279 281 283 284 285 284 283 283 284 287 290 293 295 296 297 297 296 296 296 296 296 295 295 295 295
255 256 258 259 260 261 261 261 261 262 264 267 268 266 265 265 265 266 267 268 270 270 270 269 269 269 268 267 268 268 269 270 272 273 272 271 271 270 270 270 271 272 273 273 275 276 276 277 277 278 278 279 279 278 277 276 275 275 275 277 278 280 281 282 281 281 280 281 283 287 290 293 294 295 296 295 295 295 295 295 295 294 294 294 294 294
257 258 259 259 260 261 261 261 261 263 264 265 265 265 266 265 265 265 267 270 272 272 271 270 269 268 267 267 268 268 269 271 272 271 270 271 271 271 271 272 272 273 274 275 275 276 277 278 279 279 278 276 274 272 271 271 272 273 275 276 278 278 278 277 277 278 280 283 287 290 292 294 295 295 294 294 294 294 294 293 293 292 292 293 293 294
258 258 258 258 259 260 260 261 261 263 264 265 264 265 266 266 266 267 270 273 274 272 271 272 271 270 270 269 269 269 269 270 270 270 270 270 271 271 271 272 272 273 274 275 276 277 279 279 279 276 273 270 268 268 268 269 271 272 273 274 274 274 274 275 277 280 284 287 290 292 293 294 294 293 293 293 293 293 292 292 291 291 292 292 293 294
260 258 256 256 256 257 258 259 260 261 264 265 266 267 267 268 269 270 272 273 272 271 272 272 272 273 273 272 272 271 271 271 271 271 271 271 271 271 271 271 271 272 273 275 276 277 278 277 273 270 267 266 266 266 267 268 268 269 270 271 272 273 275 278 281 284 287 290 291 292 292 292 292 292 292 292 292 291 291 290 290 291 292 293 293 294
260 258 255 255 256 258 258 259 260 263 266 267 267 267 268 269 270 271 271 271 272 272 273 273 274 274 274 273 273 273 273 274 274 273 273 272 272 271 272 272 273 273 275 276 277 276 275 272 269 266 265 265 265 265 266 266 267 268 270 272 274 277 279 282 285 288 289 290 291 291 291 291 291 291 291 291 290 290 290 290 291 291 292 293 294 294
259 257 257 258 259 261 261 262 264 267 269 267 267 267 268 268 269 269 270 271 272 273 273 273 273 273 273 273 274 274 275 276 276 275 275 275 275 276 276 277 278 278 279 278 277 274 271 268 266 264 264 263 264 264 265 267 268 271 274 276 279 281 284 287 288 289 290 290 291 291 291 291 291 290 290 289 289 289 290 290 291 292 293 294 294 294
259 259 259 261 262 263 265 266 267 269 269 268 268 268 267 267 269 270 271 271 271 271 271 272 273 273 274 275 275 276 277 277 278 278 278 279 279 280 280 281 281 280 278 276 272 269 266 264 263 263 263 264 265 266 268 270 272 275 278 281 283 286 288 289 290 290 290 290 290 290 290 290 290 289 289 289 289 290 290 291 292 293 293 294 294 293
261 260 261 261 262 264 265 267 268 269 269 269 269 268 268 268 270 271 271 271 270 271 272 273 274 275 276 277 277 278 279 279 280 280 281 281 281 281 281 280 279 276 274 271 268 266 264 264 264 264 265 266 268 270 272 274 277 280 283 285 287 289 290 290 290 290 290 290 290 289 289 289 288 288 288 289 289 290 291 292 292 293 293 293 293 292
262 262 262 262 263 264 266 267 269 269 269 269 269 269 269 270 271 271 271 270 270 271 272 273 274 275 276 277 278 279 279 280 280 280 280 280 280 279 278 277 275 273 270 268 267 266 265 266 266 267 269 271 273 275 277 280 282 285 287 288 289 290 290 290 290 289 289 289 289 288 288 288 288 288 288 289 290 291 292 292 293 293 292 292 291 290
260 261 262 263 264 266 267 269 270 270 270 270 270 270 270 270 271 271 270 270 271 272 272 273 273 274 274 275 276 277 277 277 277 277 277 277 277 276 275 273 272 270 268 267 266 267 267 268 270 272 274 276 278 281 283 285 287 288 289 290 290 289 289 289 288 288 288 288 287 287 287 287 288 288 289 290 291 291 292 292 292 292 292 291 290 290
256 258 259 261 264 266 268 270 270 270 270 270 270 271 271 271 271 271 272 272 272 273 273 273 274 274 275 275 275 275 274 274 274 274 273 273 272 271 270 269 268 267 267 268 269 271 272 274 276 278 280 282 284 285 287 288 289 289 289 289 288 288 287 287 287 287 287 287 286 286 287 287 288 289 290 290 291 292 292 292 292 291 291 290 289 289
257 258 259 260 262 264 267 268 269 270 270 271 271 271 271 271 272 272 272 272 272 272 272 273 274 274 274 273 272 271 271 270 269 269 268 268 267 267 267 267 268 269 271 273 274 276 278 280 281 283 284 286 287 287 288 288 288 288 288 287 287 286 286 286 286 286 286 286 286 286 287 288 289 290 290 291 291 291 291 291 291 290 290 289 289 289
259 259 260 260 260 261 263 264 265 267 269 270 270 270 270 270 270 270 269 269 269 269 270 270 270 270 270 268 267 267 266 266 266 266 266 267 267 268 270 271 273 275 276 278 279 281 282 283 285 286 287 287 287 287 287 287 287 287 286 286 285 285 285 285 285 285 285 286 286 287 288 289 290 290 291 291 291 291 291 290 290 289 289 288 289 289
Height
5846 5847 5848 5849 5848 5848 5848 5848 5848 5847 5848 5847 5847 5847 5848 5849 5849 5848 5846 5845 5846 5846 5846 5846 5845 5848 5850 5849 5849 5848 5848 5849 5850 5850 5851 5852 5852 5851 5851 5851 5851 5852 5852 5851 5851 5852 5852 5852 5852 5852 5852 5852 5852 5851 5851 5851 5851 5851 5851 5851 5851 5851 5851 5852 5852 5852 5852 5852 5852 5852 5852 5851 5851 5851 5850 5850 5849 5849 5848 5848 5847 5846 5844 5844 5842 5841
5843 5844 5845 5845 5844 5844 5845 5845 5845 5845 5845 5844 5844 5844 5845 5845 5845 5844 5842 5842 5842 5841 5842 5842 5841 5844 5846 5846 5846 5845 5845 5847 5847 5847 5848 5849 5849 5849 5848 5847 5848 5848 5849 5848 5848 5848 5849 5849 5849 5849 5848 5848 5848 5848 5848 5848 5848 5848 5848 5848 5848 5848 5848 5848 5849 5849 5849 5849 5849 5849 5848 5848 5847 5847 5847 5846 5846 5845 5844 5844 5843 5842 5841 5840 5839 5837
5840 5841 5841 5841 5840 5841 5841 5842 5842 5841 5841 5841 5841 5841 5841 5841 5840 5840 5839 5838 5837 5836 5837 5838 5837 5839 5842 5842 5842 5842 5842 5843 5844 5844 5844 5844 5845 5846 5845 5844 5844 5845 5845 5845 5844 5844 5845 5845 5845 5845 5845 5845 5845 5845 5845 5844 5844 5844 5844 5844 5845 5845 5845 5845 5845 5845 5846 5846 5845 5845 5845 5844 5844 5843 5843 5842 5842 5841 5840 5840 5839 5838 5837 5835 5834 5832
5836 5837 5837 5837 5837 5837 5838 5838 5838 5837 5837 5837 5837 5837 5837 5837 5836 5836 5836 5834 5832 5832 5832 5833 5832 5834 5838 5838 5839 5839 5838 5840 5840 5840 5841 5840 5840 5841 5841 5841 5841 5841 5841 5841 5841 5841 5841 5841 5841 5841 5841 5841 5841 5841 5841 5841 5841 5841 5841 5841 5841 5841 5842 5842 5842 5842 5842 5842 5842 5841 5841 5841 5840 5840 5839 5839 5838 5837 5836 5835 5834 5833 5832 5831 5829 5827
5833 5833 5832 5833 5833 5834 5835 5835 5834 5834 5833 5833 5833 5833 5833 5833 5832 5832 5831 5829 5828 5828 5828 5828 5826 5828 5834 5834 5835 5837 5835 5835 5836 5837 5837 5836 5836 5836 5837 5837 5837 5837 5837 5837 5838 5838 5837 5837 5837 5837 5837 5837 5837 5837 5837 5837 5837 5837 5837 5838 5838 5838 5838 5839 5839 5839 5839 5839 5838 5838 5838 5837 5837 5836 5835 5835 5834 5833 5832 5831 5830 5828 5827 5825 5824 5822
5829 5829 5828 5829 5829 5830 5830 5831 5831 5830 5829 5829 5829 5829 5828 5828 5828 5827 5827 5825 5824 5823 5824 5825 5821 5822 5829 5831 5832 5834 5832 5831 5832 5833 5833 5832 5832 5832 5832 5833 5833 5833 5833 5833 5833 5833 5833 5833 5833 5833 5833 5833 5833 5833 5833 5833 5833 5834 5834 5834 5834 5835 5835 5835 5835 5835 5835 5835 5835 5834 5834 5833 5833 5832 5831 5830 5829 5828 5827 5826 5825 5823 5822 5820 5819 5817
5824 5824 5824 5824 5825 5826 5827 5827 5827 5826 5825 5824 5825 5825 5824 5823 5823 5823 5823 5821 5819 5818 5819 5821 5818 5816 5822 5828 5830 5830 5828 5828 5829 5829 5829 5828 5827 5828 5827 5828 5828 5829 5829 5829 5829 5829 5829 5829 5829 5829 5829 5829 5828 5829 5829 5829 5829 5830 5830 5830 5831 5831 5831 5831 5831 5831 5831 5831 5831 5830 5829 5829 5828 5827 5826 5826 5825 5824 5822 5821 5820 5818 5816 5815 5813 5811
5819 5820 5820 5820 5820 5821 5823 5824 5823 5822 5820 5820 5821 5821 5820 5819 5819 5818 5818 5817 5815 5814 5813 5816 5817 5812 5814 5824 5828 5825 5824 5825 5826 5826 5825 5824 5823 5823 5823 5824 5824 5824 5824 5824 5824 5824 5824 5824 5824 5824 5824 5824 5824 5824 5825 5825 5825 5826 5826 5827 5827 5827 5827 5827 5827 5827 5827 5826 5826 5825 5825 5824 5823 5822 5822 5821 5820 5818 5817 5816 5814 5813 5811 5809 5807 5805
5813 5814 5815 5816 5817 5818 5819 5819 5819 5818 5816 5816 5817 5816 5815 5815 5814 5813 5813 5812 5811 5810 5808 5813 5815 5809 5807 5816 5822 5821 5822 5823 5823 5822 5820 5820 5819 5819 5819 5819 5820 5820 5819 5819 5819 5819 5819 5819 5819 5820 5820 5820 5820 5820 5820 5821 5821 5821 5822 5823 5823 5823 5823 5823 5823 5823 5822 5822 5821 5821 5820 5819 5818 5818 5816 5815 5814 5813 5811 5810 5808 5807 5805 5803 5801 5799
5807 5808 5810 5811 5813 5814 5815 5815 5814 5813 5812 5811 5812 5812 5811 5810 5810 5809 5808 5808 5806 5803 5805 5811 5813 5807 5801 5807 5815 5817 5819 5819 5818 5818 5817 5816 5815 5814 5814 5814 5814 5815 5814 5814 5813 5813 5814 5814 5814 5815 5815 5815 5815 5816 5816 5816 5817 5817 5818 5818 5818 5819 5819 5818 5818 5818 5817 5817 5817 5816 5815 5814 5813 5812 5811 5810 5808 5807 5806 5804 5803 5801 5799 5797 5795 5793
5802 5804 5804 5806 5808 5809 5809 5809 5809 5809 5807 5807 5808 5807 5807 5806 5805 5804 5802 5803 5800 5797 5803 5809 5809 5805 5796 5799 5808 5813 5815 5815 5813 5813 5812 5811 5810 5809 5809 5809 5809 5810 5809 5808 5808 5808 5808 5808 5809 5809 5809 5810 5811 5811 5811 5812 5812 5812 5813 5814 5814 5814 5814 5814 5813 5813 5813 5812 5812 5811 5810 5809 5807 5806 5805 5804 5802 5801 5800 5798 5797 5795 5793 5791 5788 5786
5798 5799 5799 5800 5802 5803 5803 5804 5804 5804 5804 5803 5803 5803 5802 5800 5799 5798 5797 5797 5794 5794 5801 5804 5803 5801 5793 5795 5803 5806 5808 5810 5809 5809 5808 5807 5806 5804 5803 5803 5803 5804 5804 5803 5803 5803 5803 5803 5804 5804 5804 5805 5805 5806 5806 5807 5807 5808 5808 5809 5809 5809 5809 5809 5808 5808 5808 5807 5806 5805 5804 5803 5802 5800 5799 5798 5797 5795 5794 5792 5790 5788 5786 5784 5782 5780
5794 5794 5795 5795 5796 5798 5798 5799 5799 5800 5800 5799 5798 5798 5797 5795 5793 5792 5792 5792 5791 5792 5796 5797 5795 5793 5791 5794 5800 5801 5801 5802 5803 5805 5804 5803 5802 5800 5799 5798 5797 5798 5798 5798 5798 5798 5798 5798 5798 5799 5799 5800 5800 5801 5801 5802 5803 5803 5804 5804 5804 5804 5804 5804 5803 5803 5802 5801 5800 5799 5798 5797 5796 5794 5793 5792 5790 5789 5787 5785 5784 5782 5780 5778 5776 5773
5788 5788 5789 5790 5791 5793 5793 5794 5794 5794 5794 5793 5793 5793 5791 5790 5788 5787 5788 5788 5788 5789 5790 5789 5788 5786 5787 5794 5797 5797 5797 5796 5797 5800 5800 5799 5797 5796 5795 5794 5793 5793 5792 5793 5793 5793 5793 5793 5793 5794 5795 5795 5795 5796 5797 5797 5798 5798 5799 5799 5799 5799 5799 5798 5798 5797 5796 5795 5794 5793 5792 5791 5790 5788 5787 5785 5784 5782 5781 5779 5777 5776 5773 5771 5769 5767
5781 5781 5784 5786 5787 5787 5787 5788 5788 5788 5787 5787 5788 5788 5786 5786 5785 5784 5784 5784 5783 5783 5783 5783 5781 5780 5784 5790 5792 5792 5793 5794 5794 5794 5794 5794 5794 5792 5791 5790 5789 5789 5788 5788 5788 5788 5788 5788 5789 5789 5789 5790 5791 5791 5792 5793 5793 5794 5794 5794 5794 5793 5793 5793 5792 5792 5791 5789 5788 5787 5786 5785 5784 5782 5781 5779 5778 5776 5775 5773 5771 5769 5767 5765 5762 5760
5776 5776 5779 5780 5781 5781 5781 5781 5782 5782 5782 5782 5782 5781 5781 5784 5784 5781 5779 5779 5779 5778 5776 5776 5776 5777 5780 5783 5785 5787 5789 5790 5790 5788 5788 5789 5788 5788 5787 5786 5785 5784 5784 5784 5784 5784 5784 5784 5784 5784 5785 5785 5786 5787 5787 5788 5788 5788 5788 5788 5788 5788 5787 5787 5787 5786 5785 5783 5782 5781 5780 5779 5777 5776 5775 5773 5772 5770 5768 5767 5764 5762 5760 5758 5755 5753
5771 5771 5772 5773 5774 5775 5774 5775 5777 5777 5776 5775 5775 5777 5778 5780 5779 5777 5775 5775 5775 5772 5770 5770 5771 5774 5775 5776 5779 5782 5783 5785 5784 5783 5784 5783 5782 5782 5782 5781 5781 5780 5779 5779 5779 5779 5779 5779 5780 5780 5780 5781 5781 5782 5782 5783 5783 5783 5783 5783 5782 5782 5782 5782 5781 5780 5779 5777 5776 5775 5774 5773 5772 5770 5769 5767 5766 5764 5762 5760 5758 5755 5753 5751 5748 5745
5765 5764 5765 5766 5767 5768 5769 5770 5770 5770 5770 5769 5771 5773 5774 5773 5773 5773 5771 5770 5770 5767 5764 5765 5767 5769 5770 5770 5774 5778 5777 5777 5778 5778 5779 5779 5778 5777 5776 5776 5776 5775 5775 5775 5775 5775 5775 5775 5775 5775 5776 5776 5776 5777 5777 5777 5778 5777 5777 5777 5776 5776 5776 5776 5775 5774 5772 5771 5770 5769 5768 5767 5766 5764 5763 5761 5759 5757 5755 5753 5751 5748 5745 5743 5740 5737
5759 5758 5758 5759 5761 5761 5763 5763 5763 5764 5764 5765 5767 5768 5768 5768 5768 5768 5767 5765 5765 5762 5759 5760 5762 5763 5765 5766 5769 5770 5770 5770 5771 5773 5775 5775 5774 5772 5771 5771 5770 5770 5771 5770 5770 5770 5770 5770 5770 5770 5771 5771 5772 5772 5772 5772 5772 5772 5771 5771 5771 5770 5770 5770 5769 5768 5766 5765 5764 5763 5762 5761 5759 5758 5756 5754 5752 5750 5748 5746 5743 5740 5738 5735 5732 5729
5752 5751 5751 5751 5753 5754 5755 5756 5757 5759 5761 5762 5763 5762 5762 5762 5762 5763 5763 5760 5760 5758 5757 5756 5755 5756 5760 5762 5762 5763 5765 5766 5768 5769 5770 5769 5768 5767 5765 5765 5765 5765 5766 5766 5766 5766 5765 5765 5765 5766 5766 5767 5767 5767 5767 5767 5766 5766 5765 5765 5765 5764 5764 5763 5762 5761 5760 5759 5758 5757 5755 5754 5752 5751 5749 5747 5745 5743 5741 5738 5735 5732 5730 5727 5724 5721
5743 5744 5745 5745 5746 5747 5748 5751 5753 5755 5756 5755 5755 5755 5755 5756 5756 5756 5756 5756 5756 5756 5755 5752 5747 5748 5754 5755 5755 5758 5760 5762 5763 5764 5764 5763 5762 5762 5760 5760 5760 5760 5760 5761 5761 5761 5761 5761 5761 5761 5761 5761 5761 5761 5761 5761 5760 5759 5759 5759 5759 5759 5758 5757 5756 5755 5754 5752 5751 5750 5748 5747 5745 5744 5741 5739 5738 5735 5733 5730 5727 5724 5722 5719 5716 5713
5737 5738 5740 5738 5739 5740 5742 5745 5746 5746 5747 5747 5748 5748 5749 5750 5750 5749 5750 5752 5753 5753 5752 5747 5740 5742 5749 5748 5749 5754 5756 5755 5756 5757 5758 5757 5756 5756 5756 5755 5754 5754 5754 5755 5755 5756 5756 5756 5756 5756 5756 5756 5756 5756 5755 5754 5754 5754 5754 5754 5753 5753 5752 5751 5750 5748 5747 5746 5745 5743 5741 5740 5738 5736 5734 5732 5730 5727 5724 5722 5719 5716 5713 5710 5707 5704
5730 5729 5731 5731 5732 5735 5736 5737 5737 5738 5739 5740 5741 5741 5742 5744 5745 5746 5747 5748 5748 5747 5746 5742 5735 5737 5744 5743 5744 5749 5751 5750 5750 5751 5752 5752 5750 5750 5750 5750 5750 5749 5749 5749 5750 5751 5751 5751 5751 5751 5751 5751 5750 5750 5749 5749 5749 5749 5749 5748 5747 5747 5745 5744 5743 5742 5741 5739 5738 5736 5735 5733 5731 5729 5727 5725 5722 5719 5716 5714 5711 5708 5705 5701 5698 5695
5722 5720 5723 5726 5727 5729 5730 5730 5731 5731 5731 5731 5733 5736 5738 5741 5743 5743 5742 5741 5741 5740 5739 5736 5730 5732 5739 5740 5739 5742 5745 5745 5744 5744 5746 5746 5745 5744 5744 5744 5744 5744 5744 5744 5745 5745 5745 5745 5746 5745 5745 5745 5745 5745 5744 5744 5744 5743 5743 5742 5741 5740 5738 5737 5736 5735 5734 5732 5731 5729 5727 5725 5724 5722 5719 5716 5713 5710 5708 5705 5702 5699 5696 5693 5690 5686
5714 5712 5716 5718 5719 5721 5722 5722 5723 5723 5723 5725 5730 5733 5734 5736 5737 5736 5736 5735 5733 5733 5733 5728 5724 5728 5735 5736 5734 5736 5738 5739 5739 5737 5738 5739 5740 5739 5738 5738 5739 5739 5740 5740 5739 5740 5740 5740 5740 5740 5740 5740 5740 5739 5739 5738 5738 5737 5737 5735 5734 5732 5731 5730 5729 5728 5726 5725 5723 5722 5720 5718 5716 5713 5710 5707 5704 5702 5699 5696 5693 5690 5687 5684 5681 5678
5705 5704 5707 5710 5711 5713 5715 5716 5718 5719 5721 5722 5725 5727 5727 5729 5730 5729 5730 5728 5724 5725 5725 5721 5721 5726 5731 5730 5729 5732 5732 5732 5732 5730 5730 5732 5734 5735 5734 5733 5733 5734 5735 5735 5734 5734 5734 5734 5735 5734 5734 5734 5734 5733 5732 5732 5731 5730 5729 5728 5726 5725 5724 5723 5722 5720 5719 5717 5715 5713 5711 5709 5707 5704 5701 5698 5695 5693 5690 5688 5685 5682 5679 5676 5673 5670
5695 5694 5699 5702 5703 5707 5711 5713 5713 5713 5714 5715 5718 5720 5720 5722 5723 5722 5721 5719 5718 5717 5717 5718 5720 5722 5725 5726 5727 5728 5727 5724 5725 5724 5725 5726 5726 5728 5729 5728 5728 5729 5729 5729 5729 5729 5729 5728 5728 5728 5728 5727 5727 5726 5726 5725 5724 5723 5722 5720 5718 5717 5716 5715 5713 5712 5710 5708 5706 5704 5702 5699 5697 5694 5692 5689 5686 5684 5682 5679 5676 5673 5670 5667 5664 5661
5686 5686 5692 5695 5696 5700 5706 5707 5705 5704 5706 5708 5710 5712 5713 5714 5715 5713 5711 5713 5714 5711 5709 5714 5716 5714 5719 5724 5723 5724 5722 5719 5718 5719 5719 5719 5718 5719 5721 5722 5722 5722 5722 5723 5722 5722 5722 5721 5720 5720 5720 5720 5719 5719 5718 5717 5716 5715 5713 5712 5710 5709 5708 5706 5704 5702 5700 5698 5697 5695 5693 5691 5688 5686 5683 5681 5678 5676 5674 5671 5667 5664 5661 5658 5655 5652
5680 5680 5686 5688 5689 5693 5699 5700 5697 5696 5698 5700 5701 5703 5705 5706 5706 5705 5706 5708 5707 5701 5702 5710 5711 5709 5714 5717 5715 5718 5718 5715 5714 5713 5711 5710 5710 5711 5712 5713 5714 5715 5715 5715 5715 5715 5715 5714 5713 5713 5713 5712 5712 5711 5710 5708 5707 5706 5705 5703 5702 5700 5699 5697 5695 5694 5692 5690 5689 5686 5684 5682 5680 5678 5675 5672 5670 5668 5665 5662 5658 5655 5652 5650 5647 5643
5673 5675 5679 5680 5681 5686 5692 5693 5690 5688 5689 5691 5692 5694 5697 5699 5699 5699 5698 5699 5697 5693 5698 5706 5705 5703 5707 5708 5708 5712 5711 5708 5707 5705 5704 5704 5703 5704 5704 5704 5706 5707 5707 5707 5707 5707 5707 5707 5707 5706 5706 5705 5703 5702 5701 5700 5699 5698 5696 5695 5694 5692 5690 5689 5687 5686 5684 5683 5680 5678 5676 5674 5672 5669 5667 5664 5661 5659 5656 5653 5650 5647 5644 5641 5638 5634
5666 5669 5672 5673 5673 5678 5686 5686 5681 5679 5680 5682 5684 5687 5692 5693 5691 5688 5688 5691 5691 5690 5696 5699 5695 5696 5701 5703 5703 5704 5700 5699 5700 5699 5699 5699 5697 5696 5696 5697 5698 5699 5699 5700 5700 5699 5699 5700 5700 5699 5698 5696 5695 5693 5693 5691 5690 5689 5688 5687 5686 5684 5682 5681 5680 5678 5676 5674 5672 5670 5668 5666 5663 5661 5658 5655 5653 5650 5647 5644 5641 5639 5636 5632 5628 5624
5661 5662 5665 5666 5664 5670 5681 5678 5671 5673 5673 5672 5677 5684 5687 5686 5682 5681 5683 5687 5687 5686 5689 5688 5685 5691 5698 5696 5694 5694 5692 5692 5693 5693 5692 5691 5690 5689 5689 5689 5690 5691 5691 5691 5691 5691 5691 5692 5692 5691 5689 5687 5686 5685 5685 5684 5682 5681 5680 5679 5677 5676 5674 5673 5672 5670 5668 5666 5664 5662 5660 5657 5654 5652 5649 5647 5644 5642 5639 5636 5633 5630 5627 5623 5618 5614
5655 5656 5659 5659 5656 5664 5673 5667 5663 5666 5662 5661 5673 5682 5682 5679 5676 5676 5677 5680 5680 5679 5679 5678 5679 5686 5691 5687 5685 5687 5686 5685 5686 5685 5684 5684 5683 5682 5682 5682 5683 5683 5684 5684 5683 5683 5684 5684 5684 5682 5680 5679 5678 5677 5677 5675 5674 5673 5671 5670 5669 5667 5666 5664 5663 5661 5660 5658 5656 5654 5652 5648 5646 5643 5641 5639 5636 5633 5630 5627 5624 5621 5617 5613 5609 5604
5649 5650 5652 5652 5650 5656 5663 5658 5654 5654 5650 5656 5671 5676 5674 5672 5670 5667 5668 5671 5673 5671 5669 5670 5674 5680 5681 5678 5678 5679 5677 5677 5678 5678 5678 5677 5676 5675 5675 5676 5676 5676 5676 5676 5676 5676 5677 5676 5675 5673 5672 5671 5670 5669 5668 5667 5666 5664 5663 5662 5660 5659 5658 5656 5655 5654 5652 5650 5648 5646 5643 5640 5637 5634 5632 5630 5628 5625 5622 5618 5615 5611 5607 5603 5599 5595
5643 5644 5644 5645 5644 5647 5652 5649 5642 5640 5645 5657 5665 5665 5664 5665 5662 5659 5659 5663 5666 5665 5663 5664 5667 5671 5672 5669 5669 5669 5669 5670 5670 5670 5672 5671 5670 5669 5669 5669 5669 5669 5669 5668 5668 5669 5669 5668 5667 5665 5664 5663 5662 5662 5661 5660 5659 5657 5655 5654 5652 5651 5650 5648 5647 5646 5644 5642 5640 5637 5634 5631 5629 5626 5624 5623 5620 5617 5613 5609 5605 5601 5597 5594 5590 5586
5637 5638 5638 5638 5638 5639 5641 5639 5633 5633 5643 5652 5654 5656 5657 5655 5653 5652 5651 5655 5661 5660 5657 5657 5659 5663 5663 5661 5660 5660 5660 5661 5661 5663 5665 5664 5663 5663 5662 5662 5662 5662 5662 5662 5660 5660 5660 5659 5658 5657 5657 5656 5655 5655 5654 5652 5651 5649 5648 5646 5645 5644 5642 5641 5639 5638 5636 5634 5631 5628 5625 5623 5621 5619 5617 5614 5611 5607 5603 5599 5595 5591 5587 5584 5581 5577
5631 5632 5632 5632 5631 5632 5632 5630 5629 5630 5635 5642 5647 5649 5648 5646 5648 5646 5641 5647 5656 5655 5649 5649 5652 5655 5655 5653 5653 5653 5652 5651 5652 5656 5658 5656 5655 5655 5655 5655 5655 5654 5654 5654 5652 5652 5651 5651 5650 5650 5649 5649 5648 5647 5646 5644 5643 5642 5640 5639 5638 5636 5634 5633 5631 5629 5627 5625 5622 5619 5617 5615 5613 5611 5608 5605 5601 5597 5594 5590 5585 5582 5578 5575 5571 5568
5624 5625 5626 5624 5623 5626 5625 5624 5624 5622 5625 5637 5643 5642 5639 5639 5641 5637 5631 5638 5650 5648 5641 5640 5644 5647 5647 5646 5646 5645 5643 5642 5644 5649 5650 5647 5646 5647 5646 5646 5646 5646 5646 5645 5644 5644 5643 5642 5643 5642 5642 5641 5640 5639 5637 5636 5634 5633 5632 5631 5629 5627 5626 5624 5623 5621 5618 5615 5613 5611 5610 5607 5605 5602 5598 5595 5592 5588 5584 5580 5576 5572 5569 5565 5562 5559
5616 5617 5620 5617 5615 5618 5618 5616 5616 5615 5621 5633 5636 5632 5631 5633 5632 5628 5623 5631 5642 5641 5634 5634 5637 5639 5640 5639 5638 5638 5635 5634 5638 5642 5640 5636 5637 5638 5637 5637 5637 5637 5637 5636 5636 5636 5635 5635 5635 5634 5633 5633 5631 5630 5629 5627 5626 5625 5624 5623 5620 5619 5618 5616 5614 5612 5609 5607 5606 5604 5601 5599 5596 5592 5589 5585 5582 5578 5574 5571 5567 5563 5560 5556 5553 5550
5609 5610 5611 5608 5607 5610 5611 5609 5608 5610 5618 5627 5627 5624 5624 5624 5623 5620 5616 5624 5634 5632 5627 5628 5630 5631 5632 5631 5630 5630 5629 5628 5631 5632 5630 5628 5629 5628 5628 5629 5629 5628 5629 5628 5628 5628 5627 5627 5626 5626 5625 5624 5622 5622 5620 5619 5618 5617 5615 5613 5612 5610 5609 5607 5605 5603 5601 5600 5598 5595 5592 5589 5586 5583 5579 5576 5572 5569 5565 5562 5558 5554 5551 5548 5544 5541
5602 5602 5602 5602 5602 5603 5603 5601 5601 5605 5613 5619 5619 5617 5616 5614 5613 5613 5612 5618 5624 5622 5619 5620 5621 5622 5623 5623 5623 5623 5622 5622 5623 5622 5621 5621 5621 5621 5621 5621 5620 5620 5620 5620 5620 5620 5619 5619 5618 5617 5616 5615 5614 5613 5612 5610 5609 5608 5606 5605 5603 5601 5600 5598 5597 5595 5593 5591 5588 5585 5583 5579 5576 5573 5570 5566 5563 5560 5556 5553 5549 5545 5542 5539 5535 5532
5595 5595 5594 5595 5597 5597 5597 5595 5593 5597 5607 5613 5611 5610 5610 5607 5605 5607 5609 5611 5612 5612 5612 5611 5611 5613 5614 5613 5614 5615 5614 5615 5615 5615 5614 5613 5613 5613 5613 5612 5612 5612 5612 5612 5612 5611 5611 5611 5610 5609 5608 5607 5605 5604 5603 5601 5600 5599 5598 5596 5594 5592 5591 5590 5588 5586 5584 5581 5579 5576 5573 5569 5566 5563 5560 5557 5554 5550 5547 5543 5540 5537 5533 5530 5527 5523
5587 5586 5585 5589 5591 5590 5589 5588 5586 5590 5602 5606 5603 5602 5602 5600 5599 5601 5602 5601 5602 5604 5604 5602 5603 5605 5605 5605 5606 5605 5605 5606 5606 5606 5605 5605 5604 5604 5604 5604 5604 5603 5603 5603 5603 5603 5603 5603 5602 5601 5599 5598 5597 5595 5594 5593 5591 5590 5589 5586 5584 5582 5582 5581 5579 5577 5574 5572 5569 5566 5563 5559 5556 5553 5550 5547 5544 5541 5538 5534 5531 5528 5524 5521 5518 5514
5578 5578 5578 5582 5585 5583 5581 5581 5582 5587 5594 5596 5594 5594 5594 5592 5592 5594 5594 5594 5595 5595 5595 5595 5595 5595 5595 5596 5596 5596 5596 5596 5596 5596 5596 5596 5595 5595 5595 5595 5595 5594 5594 5595 5594 5595 5595 5594 5593 5592 5590 5589 5588 5587 5586 5584 5583 5581 5579 5576 5574 5574 5573 5571 5569 5567 5564 5561 5558 5556 5553 5550 5547 5543 5540 5537 5534 5531 5528 5525 5522 5519 5516 5512 5508 5505
5569 5571 5573 5575 5575 5573 5573 5575 5578 5581 5583 5585 5586 5586 5586 5584 5585 5586 5586 5587 5587 5586 5587 5588 5587 5586 5587 5587 5587 5587 5587 5587 5587 5587 5587 5586 5587 5586 5586 5586 5586 5586 5586 5586 5586 5586 5586 5584 5584 5583 5581 5581 5579 5578 5577 5576 5574 5572 5570 5567 5566 5565 5563 5561 5559 5556 5553 5551 5548 5545 5542 5539 5536 5533 5530 5527 5524 5522 5519 5516 5513 5510 5506 5503 5499 5495
5561 5564 5565 5565 5565 5565 5566 5568 5571 5573 5574 5576 5577 5578 5578 5578 5578 5578 5578 5579 5579 5579 5580 5580 5579 5579 5578 5578 5578 5579 5578 5578 5578 5578 5578 5578 5578 5577 5578 5578 5578 5578 5579 5578 5578 5578 5577 5576 5575 5573 5572 5572 5571 5570 5568 5566 5565 5563 5560 5558 5557 5554 5552 5550 5548 5546 5543 5540 5537 5534 5532 5529 5526 5523 5520 5517 5515 5513 5510 5507 5504 5500 5497 5493 5489 5485
5553 5555 5556 5556 5556 5558 5558 5560 5563 5565 5566 5568 5569 5569 5570 5570 5570 5571 5571 5571 5571 5572 5572 5571 5571 5570 5570 5570 5571 5570 5570 5570 5570 5570 5570 5570 5570 5570 5570 5570 5570 5571 5570 5570 5569 5569 5568 5567 5565 5564 5563 5562 5561 5560 5558 5556 5555 5553 5550 5548 5546 5544 5542 5540 5538 5535 5532 5529 5527 5524 5521 5518 5516 5513 5511 5508 5505 5503 5500 5497 5494 5490 5486 5483 5478 5475
5545 5547 5548 5547 5548 5550 5551 5553 5556 5556 5557 5560 5561 5561 5562 5562 5562 5563 5563 5563 5563 5564 5564 5563 5563 5562 5562 5562 5562 5562 5562 5562 5562 5561 5562 5562 5562 5562 5562 5562 5562 5562 5561 5561 5560 5559 5558 5557 5556 5555 5554 5552 5551 5550 5548 5546 5545 5542 5540 5537 5535 5533 5531 5529 5527 5525 5522 5519 5516 5514 5511 5509 5506 5503 5501 5498 5496 5493 5490 5486 5483 5479 5476 5472 5468 5465
5539 5540 5540 5540 5541 5542 5544 5546 5547 5547 5549 5552 5553 5553 5554 5554 5554 5555 5555 5555 5556 5556 5555 5555 5555 5555 5555 5554 5554 5554 5553 5553 5553 5554 5553 5554 5554 5554 5553 5553 5553 5553 5552 5552 5551 5550 5549 5548 5547 5545 5544 5543 5542 5540 5538 5536 5534 5532 5529 5527 5524 5522 5520 5518 5516 5514 5512 5509 5507 5504 5502 5499 5497 5494 5492 5489 5486 5482 5479 5476 5472 5469 5465 5462 5459 5456
5532 5533 5532 5533 5534 5535 5538 5539 5538 5539 5542 5543 5544 5545 5545 5546 5547 5547 5547 5547 5547 5548 5548 5548 5548 5547 5547 5546 5545 5545 5545 5545 5545 5545 5545 5545 5545 5544 5544 5544 5543 5543 5542 5542 5541 5540 5539 5537 5536 5535 5533 5532 5531 5529 5527 5525 5523 5521 5519 5517 5514 5512 5510 5508 5506 5504 5502 5500 5497 5495 5493 5490 5487 5485 5481 5478 5475 5472 5468 5465 5462 5458 5456 5452 5449 5447
5524 5524 5523 5524 5526 5528 5530 5530 5530 5532 5534 5535 5535 5537 5538 5539 5540 5540 5539 5540 5540 5541 5541 5541 5540 5540 5539 5538 5538 5538 5537 5537 5537 5537 5537 5537 5536 5536 5535 5534 5534 5533 5532 5531 5530 5529 5528 5527 5526 5524 5522 5521 5520 5518 5516 5514 5512 5511 5509 5507 5505 5503 5500 5498 5496 5494 5492 5490 5488 5485 5483 5480 5477 5474 5471 5467 5464 5461 5458 5455 5452 5449 5446 5443 5440 5437